TimeCST,TemperatureF,Dew PointF,Humidity,Sea Level PressureIn,VisibilityMPH,Wind Direction,Wind SpeedMPH,Gust SpeedMPH,PrecipitationIn,Events,Conditions,WindDirDegrees,DateUTC
12:15 AM,55.4,48.2,77,29.90,10.0,South,10.4,-,N/A,,Clear,180,2012-12-20 06:15:00
12:35 AM,55.4,46.4,72,29.90,10.0,South,10.4,-,N/A,,Clear,180,2012-12-20 06:35:00
12:55 AM,55.4,46.4,72,29.89,10.0,South,12.7,-,N/A,,Clear,170,2012-12-20 06:55:00
1:15 AM,55.4,46.4,72,29.89,10.0,South,11.5,-,N/A,,Clear,180,2012-12-20 07:15:00
1:35 AM,55.4,46.4,72,29.87,10.0,South,12.7,-,N/A,,Clear,180,2012-12-20 07:35:00
1:55 AM,55.4,44.6,67,29.87,10.0,South,12.7,-,N/A,,Clear,170,2012-12-20 07:55:00
2:15 AM,55.4,44.6,67,29.84,10.0,SSE,13.8,-,N/A,,Clear,160,2012-12-20 08:15:00
2:35 AM,55.4,42.8,63,29.83,10.0,South,13.8,-,N/A,,Partly Cloudy,170,2012-12-20 08:35:00
2:55 AM,55.4,42.8,63,29.79,10.0,South,10.4,-,N/A,,Partly Cloudy,170,2012-12-20 08:55:00
3:15 AM,55.4,42.8,63,29.79,10.0,South,12.7,-,N/A,,Partly Cloudy,180,2012-12-20 09:15:00
3:35 AM,55.4,42.8,63,29.76,10.0,South,13.8,-,N/A,,Partly Cloudy,170,2012-12-20 09:35:00
3:55 AM,55.4,42.8,63,29.74,10.0,South,12.7,-,N/A,,Clear,180,2012-12-20 09:55:00
4:15 AM,55.4,42.8,63,29.74,10.0,South,15.0,-,N/A,,Scattered Clouds,180,2012-12-20 10:15:00
4:35 AM,53.6,44.6,72,29.74,7.0,South,16.1,-,N/A,,Overcast,170,2012-12-20 10:35:00
4:55 AM,51.8,46.4,82,29.72,8.0,South,18.4,-,N/A,,Overcast,170,2012-12-20 10:55:00
5:15 AM,50.0,48.2,94,29.74,4.0,South,20.7,-,N/A,,Overcast,180,2012-12-20 11:15:00
5:35 AM,50.0,48.2,94,29.73,10.0,South,13.8,-,N/A,,Mostly Cloudy,190,2012-12-20 11:35:00
5:55 AM,50.0,48.2,94,29.71,4.0,South,23.0,-,N/A,,Overcast,170,2012-12-20 11:55:00
6:15 AM,48.2,48.2,100,29.73,2.0,South,16.1,-,N/A,,Overcast,190,2012-12-20 12:15:00
6:35 AM,48.2,48.2,100,29.72,9.0,South,19.6,29.9,N/A,,Overcast,170,2012-12-20 12:35:00
6:55 AM,48.2,48.2,100,29.70,4.0,South,15.0,-,N/A,,Mostly Cloudy,180,2012-12-20 12:55:00
7:15 AM,48.2,48.2,100,29.69,8.0,South,20.7,-,N/A,,Overcast,170,2012-12-20 13:15:00
7:35 AM,48.2,48.2,100,29.68,10.0,South,20.7,-,N/A,,Overcast,170,2012-12-20 13:35:00
7:55 AM,50.0,48.2,94,29.66,8.0,South,18.4,31.1,N/A,,Overcast,170,2012-12-20 13:55:00
8:15 AM,50.0,48.2,94,29.64,10.0,South,21.9,-,N/A,,Overcast,170,2012-12-20 14:15:00
8:35 AM,50.0,48.2,94,29.63,10.0,South,19.6,-,N/A,,Overcast,170,2012-12-20 14:35:00
8:55 AM,48.2,46.4,93,29.62,10.0,South,19.6,33.4,N/A,,Overcast,170,2012-12-20 14:55:00
9:15 AM,50.0,48.2,94,29.61,4.0,South,17.3,-,N/A,,Overcast,170,2012-12-20 15:15:00
9:35 AM,50.0,48.2,94,29.59,4.0,South,18.4,-,N/A,,Overcast,180,2012-12-20 15:35:00
9:55 AM,50.0,48.2,94,29.61,2.0,South,19.6,32.2,N/A,,Overcast,180,2012-12-20 15:55:00
10:15 AM,48.2,48.2,100,29.62,2.5,South,12.7,-,N/A,,Overcast,190,2012-12-20 16:15:00
10:35 AM,48.2,48.2,100,29.63,2.0,SW,12.7,-,N/A,,Overcast,220,2012-12-20 16:35:00
10:55 AM,48.2,48.2,100,29.63,1.5,SSW,10.4,-,N/A,,Overcast,210,2012-12-20 16:55:00
11:15 AM,48.2,48.2,100,29.59,1.5,SSE,16.1,-,N/A,,Overcast,160,2012-12-20 17:15:00
11:35 AM,48.2,48.2,100,29.58,4.0,Variable,3.5,-,N/A,,Overcast,0,2012-12-20 17:35:00
11:55 AM,48.2,48.2,100,29.56,10.0,South,5.8,-,N/A,,Overcast,180,2012-12-20 17:55:00
12:15 PM,48.2,48.2,100,29.56,10.0,South,5.8,-,N/A,,Overcast,190,2012-12-20 18:15:00
12:35 PM,50.0,50.0,100,29.54,8.0,SW,8.1,-,N/A,,Overcast,220,2012-12-20 18:35:00
12:55 PM,51.8,51.8,100,29.52,10.0,WSW,9.2,-,N/A,,Overcast,240,2012-12-20 18:55:00
1:15 PM,51.8,51.8,100,29.53,10.0,SW,17.3,-,N/A,,Overcast,230,2012-12-20 19:15:00
1:35 PM,51.8,50.0,94,29.53,10.0,SW,12.7,-,N/A,,Overcast,230,2012-12-20 19:35:00
1:55 PM,53.6,50.0,88,29.53,10.0,SW,15.0,-,N/A,,Scattered Clouds,230,2012-12-20 19:55:00
2:15 PM,51.8,46.4,82,29.56,10.0,West,23.0,29.9,N/A,,Scattered Clouds,260,2012-12-20 20:15:00
2:35 PM,48.2,39.2,71,29.58,10.0,West,19.6,35.7,N/A,,Mostly Cloudy,260,2012-12-20 20:35:00
2:55 PM,48.2,37.4,66,29.60,10.0,West,17.3,27.6,N/A,,Mostly Cloudy,260,2012-12-20 20:55:00
3:15 PM,44.6,35.6,71,29.63,10.0,WSW,19.6,29.9,N/A,,Overcast,250,2012-12-20 21:15:00
3:35 PM,42.8,33.8,70,29.66,10.0,WSW,21.9,29.9,N/A,,Overcast,250,2012-12-20 21:35:00
3:55 PM,42.8,33.8,70,29.67,10.0,West,18.4,34.5,N/A,,Overcast,260,2012-12-20 21:55:00
4:15 PM,41.0,33.8,76,29.70,10.0,WSW,15.0,34.5,N/A,,Overcast,250,2012-12-20 22:15:00
4:35 PM,39.2,30.2,70,29.71,10.0,West,13.8,26.5,N/A,,Overcast,270,2012-12-20 22:35:00
4:55 PM,39.2,30.2,70,29.72,10.0,West,17.3,26.5,N/A,,Overcast,270,2012-12-20 22:55:00
5:15 PM,39.2,28.4,65,29.74,10.0,West,12.7,-,N/A,,Overcast,270,2012-12-20 23:15:00
5:35 PM,39.2,28.4,65,29.75,10.0,West,16.1,27.6,N/A,,Overcast,280,2012-12-20 23:35:00
5:55 PM,39.2,28.4,65,29.76,10.0,West,11.5,24.2,N/A,,Overcast,280,2012-12-20 23:55:00
6:15 PM,37.4,28.4,70,29.78,10.0,West,16.1,26.5,N/A,,Overcast,280,2012-12-21 00:15:00
6:35 PM,37.4,28.4,70,29.79,10.0,West,18.4,28.8,N/A,,Overcast,270,2012-12-21 00:35:00
6:55 PM,37.4,26.6,65,29.80,10.0,West,17.3,-,N/A,,Overcast,280,2012-12-21 00:55:00
7:15 PM,37.4,28.4,70,29.81,10.0,West,13.8,-,N/A,,Overcast,280,2012-12-21 01:15:00
7:35 PM,37.4,28.4,70,29.81,10.0,West,16.1,21.9,N/A,,Overcast,280,2012-12-21 01:35:00
7:55 PM,37.4,28.4,70,29.81,10.0,West,13.8,-,N/A,,Overcast,270,2012-12-21 01:55:00
8:15 PM,37.4,28.4,70,29.81,10.0,West,13.8,-,N/A,,Overcast,260,2012-12-21 02:15:00
8:35 PM,37.4,28.4,70,29.81,10.0,West,18.4,-,N/A,,Overcast,270,2012-12-21 02:35:00
8:55 PM,37.4,28.4,70,29.82,10.0,WNW,16.1,27.6,N/A,,Overcast,290,2012-12-21 02:55:00
9:15 PM,37.4,28.4,70,29.82,10.0,WNW,19.6,-,N/A,,Overcast,290,2012-12-21 03:15:00
9:35 PM,35.6,28.4,75,29.82,10.0,West,9.2,-,N/A,,Overcast,280,2012-12-21 03:35:00
9:55 PM,35.6,28.4,75,29.82,10.0,West,6.9,-,N/A,,Overcast,270,2012-12-21 03:55:00
10:15 PM,35.6,28.4,75,29.83,10.0,West,18.4,27.6,N/A,,Overcast,270,2012-12-21 04:15:00
10:35 PM,35.6,28.4,75,29.84,10.0,West,17.3,-,N/A,,Mostly Cloudy,270,2012-12-21 04:35:00
10:55 PM,33.8,28.4,81,29.85,10.0,West,13.8,-,N/A,,Mostly Cloudy,280,2012-12-21 04:55:00
11:15 PM,33.8,28.4,81,29.85,10.0,West,10.4,-,N/A,,Mostly Cloudy,270,2012-12-21 05:15:00
11:35 PM,33.8,26.6,75,29.85,10.0,West,10.4,26.5,N/A,,Unknown,270,2012-12-21 05:35:00
11:55 PM,33.8,24.8,70,29.86,10.0,West,13.8,-,N/A,,Scattered Clouds,270,2012-12-21 05:55:00